#timestamp,LO_Frequency,Hit,StdDev 
1568440815.6,286047002.2,N
1568440835.5,286047002.2,N
1568440855.3,286046998.2,N
1568440875.2,286046995.1,N
1568440895.9,286046993.1,N
1568440915.7,286046991.2,N
1568440935.6,286046989.9,N
1568440955.4,286046987.3,Y
1568440975.2,286046990.1,P
1568440995.1,286046992.2,N
1568440996.0,286046992.2,N
1568441015.8,286046990.1,Y
1568441035.7,286046996.8,P
1568441055.5,286046993.5,P
1568441075.3,286046994.7,P
1568441095.2,286046993.8,Y
1568441115.0,286047000.3,P
1568441115.9,286047000.3,N
1568441135.8,286046994.9,N
1568441155.6,286046992.7,N
1568441175.4,286046992.9,N
1568441195.3,286046992.3,N
1568441215.1,286046995.5,N
1568441235.8,286046999.4,N
1568441255.7,286047000.2,N
1568441275.5,286047004.1,N
1568441295.4,286047002.9,N
1568441315.2,286047005.0,N
1568441335.0,286047008.7,N
1568441335.9,286047008.7,N
1568441355.8,286047009.3,N
1568441375.6,286047009.8,N
1568441395.4,286047011.4,N
1568441415.3,286047011.4,N
1568441435.1,286047012.4,N
1568441455.9,286047009.9,N
1568441475.7,286047009.4,N
1568441495.5,286047008.8,N
1568441515.4,286047007.1,N
1568441535.2,286047001.4,N
1568441555.0,286047001.7,N
1568441555.9,286047001.7,N
1568441575.8,286047002.1,N
1568441595.6,286047002.3,N
1568441615.5,286047000.6,N
1568441635.3,286047001.1,N
1568441655.1,286046997.2,N
1568441675.9,286046995.5,N
1568441695.7,286046997.3,N
1568441715.6,286046997.4,N
1568441735.4,286046999.5,N
1568441755.2,286046998.2,N
1568441775.1,286047000.0,N
1568441776.0,286047000.0,N
1568441795.8,286047001.9,N
1568441815.6,286047001.7,N
1568441835.5,286047005.7,N
1568441855.3,286047005.3,N
1568441875.2,286047008.5,N
1568441895.9,286047007.8,N
1568441915.7,286047007.5,N
1568441935.6,286047003.1,N
1568441955.4,286046999.9,N
1568441975.2,286046998.9,N
1568441995.1,286046996.5,N
1568441996.0,286046996.5,N
1568442015.8,286046995.9,N
1568442035.7,286046991.9,N
1568442055.5,286046993.0,N
1568442075.3,286046994.7,N
1568442095.2,286046996.4,N
1568442115.0,286046998.8,N
1568442115.9,286046998.8,N
1568442135.7,286047002.5,N
1568442155.6,286047001.3,N
1568442175.4,286047005.1,N
1568442195.3,286047008.8,N
1568442215.1,286047006.4,N
1568442216.0,286047006.4,N
1568442235.8,286047005.3,N
1568442255.7,286047001.3,N
1568442275.5,286047003.8,N
1568442295.3,286047005.9,N
1568442315.2,286047003.1,N
1568442335.0,286047003.7,N
1568442335.9,286047003.7,N
1568442355.8,286047003.6,N
1568442375.6,286047001.9,N
1568442395.4,286047001.2,N
1568442415.3,286046998.5,N
1568442435.1,286046996.9,N
1568442455.8,286046997.1,N
1568442475.7,286046995.8,N
1568442495.5,286046997.6,N
1568442515.4,286047001.1,N
1568442535.2,286046999.5,N
1568442555.0,286046996.9,N
1568442555.9,286046996.9,N
1568442575.8,286046995.4,N
1568442595.6,286046995.0,N
1568442615.4,286046996.4,N
1568442635.3,286046995.6,N
1568442655.1,286046996.1,N
1568442675.9,286046994.1,N
1568442695.7,286046990.3,N
1568442715.5,286046987.0,N
1568442735.4,286046985.9,N
1568442755.2,286046986.0,N
1568442775.0,286046989.7,N
1568442775.9,286046989.7,N
1568442795.8,286046992.4,N
1568442815.6,286046991.7,N
1568442835.5,286046995.8,N
1568442855.3,286046997.8,N
1568442875.1,286046998.7,N
1568442895.9,286047004.1,N
1568442915.7,286047004.5,N
1568442935.5,286047006.7,N
1568442955.4,286047009.8,N
1568443005.2,286047012.2,E
1568443015.2,286047005.0,N
1568443035.0,286047000.2,P
1568443035.9,286047000.2,N
1568443055.7,286047002.3,N
1568443075.6,286047003.9,N
1568443095.4,286047003.3,N
1568443115.3,286047008.6,Y
1568443135.1,286047004.6,P
1568443136.0,286047004.6,P
1568443155.8,286047005.2,P
1568443175.7,286047004.7,Y
1568443195.5,286047004.4,P
1568443215.4,286046997.6,P
1568443235.2,286046993.6,N
1568443255.0,286046990.4,N
1568443255.9,286046990.4,N
1568443275.8,286046989.8,N
1568443295.6,286046988.8,N
1568443315.4,286046993.0,N
1568443335.3,286046992.8,N
1568443355.1,286046990.9,N
1568443375.9,286046993.0,N
1568443395.7,286046990.8,N
1568443415.5,286046984.7,Y
1568443435.4,286046989.5,P
1568443455.2,286046989.4,P
1568443475.1,286046987.4,P
1568443476.0,286046987.4,Y
1568443495.8,286046997.9,P
1568443515.6,286046997.4,N
1568443535.5,286047001.0,N
1568443555.3,286047000.5,N
1568443575.2,286047000.7,N
1568443595.9,286046998.7,N
1568443615.7,286046995.8,N
1568443635.6,286046998.0,N
1568443655.4,286046994.4,N
1568443675.2,286046995.2,N
1568443695.1,286046995.1,N
1568443696.0,286046995.1,N
1568443715.8,286046996.9,N
1568443735.7,286046998.3,N
1568443755.5,286046996.6,N
1568443775.3,286046997.4,N
1568443795.2,286046998.3,N
1568443815.0,286047001.1,N
1568443815.9,286047001.1,N
1568443835.8,286047002.0,N
1568443855.6,286047005.9,N
1568443875.4,286047001.4,N
1568443895.3,286047004.2,N
1568443915.1,286047004.1,N
1568443916.0,286047004.1,N
1568443935.8,286047005.3,N
1568443955.7,286047006.3,N
1568443975.5,286047008.6,N
1568443995.4,286047009.5,N
1568444015.2,286047011.6,N
1568444035.0,286047012.8,N
1568444035.9,286047012.8,N
1568444055.8,286047017.0,Y
1568444075.6,286047016.6,P
1568444095.4,286047016.8,N
1568444115.3,286047016.5,N
1568444135.1,286047012.6,N
1568444155.9,286047013.3,N
1568444175.7,286047012.8,N
1568444195.5,286047015.5,Y
1568444215.4,286047002.3,P
1568444235.2,286047002.6,N
1568444255.0,286047000.3,N
1568444255.9,286047000.3,N
1568444275.8,286047000.3,N
1568444295.6,286047004.3,N
1568444315.5,286047005.8,N
1568444335.3,286047004.9,N
1568444355.1,286047007.3,N
1568444375.9,286047008.2,N
1568444395.7,286047008.2,N
